Regional Weather Roundup
Issued by NWS

Home | Current Version | Previous Version | Text Only | Print | Product List | Glossary On
Versions: 1 2 3 4 5 6 7 8 9 10 11 12 13 14 15 16 17 18 19 20 21 22 23 24 25 26 27 28 29 30 31 32 33 34 35 36 37 38 39 40 41 42 43 44 45 46 47 48 49 50
000
ASUS44 KEWX 310710
RWRTX
SOUTH TEXAS REGIONAL WEATHER ROUNDUP
NATIONAL WEATHER SERVICE AUSTIN/SAN ANTONIO TX
200 AM CDT SUN AUG 31 2014

NOTE: "FAIR" INDICATED FEW OR NO CLOUDS BELOW 12,000 FEET WITH NO
SIGNIFICANT WEATHER AND/OR OBSTRUCTIONS TO VISIBILITY.

* - THESE STATIONS ARE NOT NWS OR FAA STATIONS...AND ARE NOT SUBJECT
    TO NWS AND FAA QUALITY CONTROL.

TXZ171-172-183>190-310800-
TEXAS HILL COUNTRY AND EDWARDS PLATEAU

CITY           SKY/WX    TMP DP  RH WIND       PRES   REMARKS
JUNCTION       CLEAR     76  68  76 CALM      29.98F
*LLANO         CLEAR     77  72  83 CALM      29.99S
BURNET         CLEAR     79  71  76 S7        30.00R
*HORSESHOE BAY CLEAR     80  69  70 S7        29.97R
*KERRVILLE     PTCLDY    76  69  79 SE6       30.01S
*FREDERICKSBRG CLEAR     77  67  71 S7        30.00S
*ROCKSPRINGS   CLEAR     75  66  73 SE13      30.04S
*BOERNE STAGE  PTCLDY    73  66  78 S6        30.01S
*CASTROVILLE   MOCLDY    78  69  73 SE7       29.99S
HONDO          PTCLDY    78  71  79 SE7       29.99R
*UVALDE        PTCLDY    79  72  77 SE9       29.96F
DEL RIO        CLEAR     86  69  56 SE12      29.92R HX  90
LAUGHLIN AFB   CLEAR     84  69  60 SE13      29.94R
CARRIZO SPRGS  CLOUDY    81  70  69 SE8       29.93F
$$

TXZ173-191>194-202-209-217>225-228-310800-
CENTRAL AND SOUTH CENTRAL TEXAS

CITY           SKY/WX    TMP DP  RH WIND       PRES   REMARKS
GEORGETOWN     PTCLDY    79  72  78 S8          N/A
AUSTIN/BERGSTM PTCLDY    77  72  84 S10       29.96S
AUSTIN/MABRY   PTCLDY    78  72  81 S7        29.97R
*AUSTIN/EXEC   PTCLDY    75  73  94 S6        29.97S
*LAGO VISTA    CLOUDY    78  72  80 S5        29.99S
SAN MARCOS     CLEAR     77  68  73 S9        29.98F
NEW BRAUNFELS  PTCLDY    77  72  84 S8        29.95F
RANDOLPH AFB   MOCLDY    77  72  83 S6        29.98S
PT SAN ANTONIO CLOUDY    78  72  81 S12       29.96S
SAN ANTONIO    MOCLDY    79  72  79 S12       29.98R
STINSON FIELD  CLOUDY    79  72  79 SE7       29.96S
*PLEASANTON    PTCLDY    78  72  83 SE6       29.96S
*LA GRANGE     PTCLDY    77  74  90 CALM      29.95S
*GIDDINGS      PTCLDY    76  71  84 S3        30.01S
*GONZALES      PTCLDY    77  74  92 CALM      29.96S
$$

TXZ163>164-176>182-195>201-210>213-226-227-235-310800-
SOUTHEAST TEXAS

CITY           SKY/WX    TMP DP  RH WIND       PRES   REMARKS
COLLEGE STN    PTCLDY    77  72  84 S6        29.97R
*BRYAN         PTCLDY    76  72  85 S6        29.97R
*CALDWELL      PTCLDY    75  72  88 S6        30.00S
*CROCKETT      NOT AVBL
*BRENHAM       PTCLDY    77  73  87 CALM      29.97S
HUNTSVILLE     PTCLDY    77  73  87 S5        29.98R
CONROE         PTCLDY    75  72  90 CALM      29.98S
HOUSTON BUSH   MOCLDY    77  73  88 CALM      29.97S
HOUSTON HOBBY  MOCLDY    77  73  87 SE3       29.95F
*HOUSTON SW AP MOCLDY   N/A N/A N/A CALM      29.96F
PEARLAND       MOCLDY    77  73  87 CALM      29.97F
HOUSTON HOOKS  MOCLDY    78  73  84 S3        29.97S
ELLINGTON FLD  MOCLDY    77  73  88 CALM      29.97F
SUGAR LAND     MOCLDY    77  74  90 CALM      29.96S
*HOUSTON EXEC  MOCLDY    75  75 100 SE5       29.98S
*CLEVELAND MUN MOCLDY    74  73  97 CALM      29.98S
*WHARTON       PTCLDY    74  72  95 CALM      29.96F
$$

TXZ214>216-236>238-310800-
THE UPPER TEXAS COAST

CITY           SKY/WX    TMP DP  RH WIND       PRES   REMARKS
*ORANGE        MOCLDY    76  76 100 CALM      29.99F
PORT ARTHUR    MOCLDY    76  74  93 SE3       29.97F
GALVESTON      PTCLDY    80  77  90 S6        29.97F
ANGLETON       PTCLDY    73  72  96 CALM      29.96S
*BAY CITY      PTCLDY    76  76 100 CALM      29.95F
PALACIOS       PTCLDY    82  75  79 S12       29.95S
$$

TXZ229>234-239>247-310800-
TEXAS COASTAL BEND AND RIO GRANDE PLAINS

CITY           SKY/WX    TMP DP  RH WIND       PRES   REMARKS
VICTORIA       PTCLDY    78  74  87 CALM      29.96S
*BEEVILLE      PTCLDY    76  76  98 NE3       29.96R
ROCKPORT       MOCLDY    82  76  81 S7        29.94S
*PORT ARANSAS  PTCLDY    82  77  84 S10G16    29.94S
*PORT LAVACA   PTCLDY    77  75  93 SE3       29.95S
*INGLESIDE     MOCLDY    82  77  86 S8        29.94S
CORPUS CHRISTI MOCLDY    78  76  93 SE5       29.94F
CORPUS NAS     MOCLDY    82  79  90 S9        29.93F HX  92
*ROBSTOWN      MOCLDY    78  76  93 CALM      29.94F
ALICE          MOCLDY    76  74  93 E3        29.94S
KINGSVILLE NAS MOCLDY    78  78 100 SE3       29.93F
COTULLA        CLEAR     79  71  76 SE8       29.95S
*FAITH RANCH   MOCLDY    81  72  74 SE9       29.96R
LAREDO         PTCLDY    81  74  79 SE8       29.96R
$$

TXZ248>255-310800-
DEEP SOUTH TEXAS

CITY           SKY/WX    TMP DP  RH WIND       PRES   REMARKS
BROWNSVILLE    LGT RAIN  81  79  94 SE15      29.92F HX  90
PORT ISABEL    PTCLDY    83  78  85 SE10      29.92S HX  93
*SOUTH PADRE     N/A     82  81  94 SE10      29.92F HX  95
HARLINGEN      PTCLDY    81  78  91 SE9       29.92R
*HEBBRONVILLE  CLOUDY    79  75  86 SE10      29.95F
MCALLEN        MOCLDY    80  78  94 SE7       29.92F
*WESLACO       NOT AVBL
FALFURRIAS     MOCLDY    68  66  92 E3        29.93F
EDINBURG       MOCLDY    81  76  86 E3        29.93S
*ZAPATA        CLOUDY    80  72  75 SE7       29.92S
$$

TXZ213>215-236>238-242>244-246-247-251-254-255-310800-
CMAN STATIONS

STATION/POSITION TIME  TEMP    WIND        PRES    WAVE
                       AIR SEA DIR/SP/G            HT/PER
                 (UTC) (F)     (DEG/KT/KT) (MB)    (FT/S)
SABINE PASS      0700   80 83  200/  5/  8 1015.1
SEA RIM ST PARK  0700   81     190/  9/ 11 1015.3
NORTH JETTY/GLS  0700   82 83  210/ 11/ 12   N/A
EAGLE POINT      0700   81 82  210/  5/  6 1014.5
MORGANS POINT    0700   81     200/  4/  5 1014.4
MISSION/ARANSAS  0600   81     150/ 12     1015.0
PORT O`CONNOR    0700          170/ 12/ 13   N/A
PORT ARANSAS     0700   83 83  150/ 17/ 17 1014.1
MALAQUITE BEACH  0700   83 83  150/ 13/ 15 1013.1
BAFFIN BAY       0700   82 80  150/  7/  9 1013.7
PORT ISABEL      0700   82 82  140/  4/  7 1013.4
$$

GMZ080-GMZ150>470-310800-
OFFSHORE BUOY REPORTS

STATION/POSITION TIME  TEMP    WIND        PRES    WAVE
                       AIR SEA DIR/SP/G            HT/PER
                 (UTC) (F)     (DEG/KT/KT) (MB)    (FT/S)
20 E GALVESTON   0700   83 85  180/ 12/ 16 1014.4    4/ 7
90 E PT ARANSAS  0700   85 85  140/ 16/ 17 1014.3    4/ 6
35 NE PT MANSFLD 0700   84 85  150/ 16/ 19 1012.9    5/ 7
200 E PT ISABEL  0700   85 86  110/ 12/ 14 1014.1    5/ 8
$$



USA.gov is the U.S. government's official web portal to all federal, state and local government web resources and services.